This is the latest recevied weather packets stored in our database for station/object W9PEM-13. If no packets are shown the sender has not sent any weather packets the latest 10 day(s).
| Time | Temp. | Humidity | Pressure | Rain* | Wind** | Luminosity | Snow |
|---|---|---|---|---|---|---|---|
| 1777317061 | 9.44° C | 99% | 973.2 hPa | 5.08 mm | - | 83 W/m² | - |
| 1777316461 | 9.44° C | 99% | 974.1 hPa | 8.38 mm | - | 38 W/m² | - |
| 1777316283 | 9.44° C | 99% | 973.5 hPa | 10.16 mm | - | 54 W/m² | - |
| 1777315682 | 8.89° C | 99% | 972.6 hPa | 13.72 mm | - | 83 W/m² | - |
| 1777315202 | 8.33° C | 99% | 973 hPa | 14.48 mm | - | 236 W/m² | - |
| 1777315085 | 8.33° C | 99% | 972.8 hPa | 14.48 mm | - | 106 W/m² | - |
| 1777314485 | 8.33° C | 99% | 971.3 hPa | 16.76 mm | - | 123 W/m² | - |
| 1777313885 | 8.33° C | 99% | 976.3 hPa | 15.75 mm | - | 74 W/m² | - |
| 1777313285 | 8.33° C | 99% | 977.5 hPa | 14.48 mm | - | 55 W/m² | - |
| 1777312685 | 7.78° C | 99% | 978.3 hPa | 10.67 mm | - | 52 W/m² | - |
| 1777312084 | 7.78° C | 99% | 978.4 hPa | 7.11 mm | - | 57 W/m² | - |
| 1777311485 | 7.22° C | 99% | 978.2 hPa | 6.35 mm | - | 59 W/m² | - |
| 1777310884 | 7.78° C | 99% | 978.3 hPa | 3.81 mm | - | 51 W/m² | - |
| 1777310285 | 7.22° C | 99% | 978.3 hPa | 2.29 mm | - | 53 W/m² | - |
| 1777309684 | 7.22° C | 98% | 978.6 hPa | 1.52 mm | - | 110 W/m² | - |
| 1777309084 | 7.22° C | 98% | 978.9 hPa | 0.76 mm | - | 83 W/m² | - |
| 1777308487 | 7.78° C | 98% | 979.2 hPa | 0.51 mm | - | 85 W/m² | - |
| 1777308246 | 7.78° C | 98% | 979.2 hPa | 0.51 mm | - | 91 W/m² | - |
| 1777307764 | 7.22° C | 98% | 979.5 hPa | 0.51 mm | - | 127 W/m² | - |
| 1777306805 | 7.22° C | 98% | 979.8 hPa | 0.25 mm | - | 95 W/m² | - |
| 1777306326 | 7.22° C | 98% | 980.1 hPa | 0.25 mm | - | 76 W/m² | - |
| 1777305785 | 7.22° C | 98% | 979.8 hPa | 0.25 mm | - | 97 W/m² | - |
| 1777305187 | 7.78° C | 98% | 979.9 hPa | 0.25 mm | - | 107 W/m² | - |
| 1777305065 | 7.78° C | 98% | 979.8 hPa | 0.25 mm | - | 75 W/m² | - |
| 1777304465 | 7.78° C | 98% | 980 hPa | 0.25 mm | - | 57 W/m² | - |
* Rain latest hour (hover to see other rain measurements)
** Current wind speed in m/s (hover to see current wind gust speed)